Find NNS 30090

NORAD ID: 2176 Int'l Des: 1966-041 Owner: NAVAIR Country: US operational
LEOCIRCULARRETROGRADE

Aktuelle Ansicht

3D-Globus wird geladen...

About NNS 30090

NNS 30090 (NORAD 2176) is a satellite by NAVAIR of US. It operates in LEO, CIRCULAR, RETROGRADE orbit

Über NNS 30090

Beschreibung wird geladen...

Nächste Überflüge

Passes for default location (London). Set your location on the main map for personalized predictions.

Höhenverlauf

Loading altitude history...

Zweizeiliger Elementsatz

1 2176U 66041A 26159.76770987 .00000247 00000-0 14586-3 0 9997
2 2176 90.2311 83.0033 0062335 132.3696 228.2786 14.04328179 66253
Epoch: 8. Juni 2026 • Age: 10 hours

Aktueller Status

Höhe 886.7 km
Geschwindigkeit 7.41 km/s
Subsatellitenpunkt 37.36°N, 112.32°E
Typ other

Most Searched